Location: Newark
(34.9500°N, 139.9667°E)
Time: 02:50:28
(UTC+00:00)

Transit 2A - Pass Details

Date: 13 December 2019
Orbit: 601 x 958 km, 66.7° (Epoch: 22 January)

Event Time Altitude Azimuth Distance (km) Brightness Sun altitude
Rises 07:13:38 0° 316° (NW) 2,916 9.2 2.0°
Reaches altitude 10° 07:16:16 10° 301° (WNW) 2,044 8.7 1.5°
Maximum altitude 07:19:46 22° 251° (WSW) 1,471 9.0 0.9°
Drops below altitude 10° 07:23:29 10° 201° (SSW) 2,178 9.2 0.2°
Sets 07:26:23 0° 187° (S) 3,163 9.7 -0.3°
